| time (UTC) | temp F | wind direction | speed knots | gust knots | rain 1hr in | rain 24hr in | rain mn in | humidity % | barometer mb |
| 20260506124204 | 42 | 0 | 0.0 | 0.0 | 0.00 | 0.00 | 0.00 | 91 | 1018.9 |
| 20260506123604 | 43 | 105 | 0.0 | 0.9 | 0.00 | 0.00 | 0.00 | 91 | 1018.9 |
| 20260506123008 | 43 | 104 | 0.0 | 0.9 | 0.00 | 0.00 | 0.00 | 91 | 1019.0 |
| 20260506122404 | 43 | 105 | 0.0 | 1.7 | 0.00 | 0.00 | 0.00 | 91 | 1018.9 |
| 20260506121804 | 44 | 105 | 0.0 | 1.7 | 0.00 | 0.00 | 0.00 | 91 | 1018.8 |
| 20260506121206 | 44 | 105 | 0.9 | 1.7 | 0.00 | 0.00 | 0.00 | 91 | 1018.7 |
| 20260506120009 | 44 | 114 | 1.7 | 3.5 | 0.00 | 0.00 | 0.00 | 91 | 1018.7 |
| 20260506115405 | 44 | 108 | 1.7 | 3.5 | 0.00 | 0.00 | 0.00 | 92 | 1018.6 |
| 20260506114804 | 44 | 101 | 0.9 | 2.6 | 0.00 | 0.00 | 0.00 | 92 | 1018.7 |
| 20260506114204 | 44 | 107 | 1.7 | 2.6 | 0.00 | 0.00 | 0.00 | 91 | 1018.6 |
| 20260506113605 | 43 | 115 | 1.7 | 2.6 | 0.00 | 0.00 | 0.00 | 91 | 1018.6 |
| 20260506113009 | 43 | 118 | 0.9 | 2.6 | 0.00 | 0.00 | 0.00 | 91 | 1018.8 |
| 20260506112405 | 43 | 119 | 0.0 | 0.9 | 0.00 | 0.00 | 0.00 | 91 | 1018.8 |
| 20260506111206 | 43 | 119 | 0.0 | 1.7 | 0.00 | 0.00 | 0.00 | 91 | 1018.7 |
| 20260506110605 | 43 | 118 | 0.9 | 1.7 | 0.00 | 0.00 | 0.00 | 91 | 1018.6 |
| 20260506110010 | 43 | 118 | 0.9 | 1.7 | 0.00 | 0.00 | 0.00 | 91 | 1018.7 |
| 20260506105405 | 43 | 119 | 0.0 | 0.9 | 0.00 | 0.00 | 0.00 | 91 | 1018.6 |
| 20260506104805 | 43 | 119 | 0.0 | 0.9 | 0.00 | 0.00 | 0.00 | 90 | 1018.7 |
| 20260506104206 | 44 | 119 | 0.0 | 0.9 | 0.00 | 0.00 | 0.00 | 90 | 1018.6 |
| 20260506103605 | 44 | 0 | 0.0 | 0.0 | 0.00 | 0.00 | 0.00 | 90 | 1018.5 |
| 20260506103009 | 44 | 119 | 0.0 | 0.9 | 0.00 | 0.00 | 0.00 | 90 | 1018.6 |
| 20260506102405 | 44 | 119 | 0.0 | 0.9 | 0.00 | 0.00 | 0.00 | 90 | 1018.6 |
| 20260506101805 | 44 | 119 | 0.0 | 0.9 | 0.00 | 0.00 | 0.00 | 90 | 1018.6 |
| 20260506101206 | 44 | 119 | 0.0 | 0.9 | 0.00 | 0.00 | 0.00 | 90 | 1018.5 |
| 20260506100605 | 45 | 118 | 0.9 | 1.7 | 0.00 | 0.00 | 0.00 | 90 | 1018.5 |
| 20260506100009 | 45 | 119 | 0.0 | 1.7 | 0.00 | 0.00 | 0.00 | 90 | 1018.4 |
| 20260506095405 | 46 | 118 | 0.9 | 1.7 | 0.00 | 0.00 | 0.00 | 90 | 1018.4 |
| 20260506094805 | 46 | 119 | 1.7 | 2.6 | 0.00 | 0.00 | 0.00 | 90 | 1018.5 |
| 20260506094206 | 47 | 109 | 1.7 | 2.6 | 0.00 | 0.00 | 0.00 | 90 | 1018.4 |
| 20260506093604 | 47 | 96 | 1.7 | 2.6 | 0.00 | 0.00 | 0.00 | 91 | 1018.4 |
| 20260506093010 | 47 | 100 | 1.7 | 2.6 | 0.00 | 0.00 | 0.00 | 91 | 1018.4 |
| 20260506092405 | 47 | 112 | 2.6 | 3.5 | 0.00 | 0.00 | 0.00 | 91 | 1018.2 |
| 20260506091805 | 47 | 113 | 2.6 | 3.5 | 0.00 | 0.00 | 0.00 | 91 | 1018.3 |
| 20260506090604 | 46 | 112 | 2.6 | 5.2 | 0.00 | 0.00 | 0.00 | 90 | 1018.4 |
| 20260506090008 | 46 | 111 | 2.6 | 3.5 | 0.00 | 0.00 | 0.00 | 90 | 1018.4 |
| 20260506085404 | 46 | 107 | 2.6 | 3.5 | 0.00 | 0.00 | 0.00 | 90 | 1018.5 |
| 20260506084204 | 47 | 111 | 2.6 | 5.2 | 0.00 | 0.00 | 0.00 | 90 | 1018.4 |
| 20260506083008 | 47 | 103 | 1.7 | 3.5 | 0.00 | 0.00 | 0.00 | 91 | 1018.5 |
| 20260506081804 | 46 | 96 | 1.7 | 2.6 | 0.00 | 0.00 | 0.00 | 91 | 1018.4 |
| 20260506081204 | 46 | 96 | 1.7 | 2.6 | 0.00 | 0.00 | 0.00 | 90 | 1018.4 |
| 20260506080604 | 46 | 122 | 1.7 | 2.6 | 0.00 | 0.00 | 0.00 | 90 | 1018.4 |
| 20260506073007 | 46 | 197 | 0.9 | 1.7 | 0.00 | 0.00 | 0.00 | 89 | 1018.2 |
| 20260506072404 | 46 | 198 | 0.0 | 1.7 | 0.00 | 0.00 | 0.00 | 89 | 1018.1 |
| 20260506071804 | 46 | 198 | 0.0 | 0.9 | 0.00 | 0.00 | 0.00 | 89 | 1018.1 |
| 20260506071204 | 46 | 198 | 0.0 | 0.9 | 0.00 | 0.00 | 0.00 | 89 | 1017.9 |
| 20260506070606 | 46 | 0 | 0.0 | 0.0 | 0.00 | 0.00 | 0.00 | 88 | 1017.8 |
| 20260506062406 | 48 | 198 | 0.0 | 0.9 | 0.00 | 0.00 | 0.00 | 88 | 1017.4 |
| 20260506061805 | 48 | 0 | 0.0 | 0.0 | 0.00 | 0.00 | 0.00 | 87 | 1017.3 |
| 20260506061204 | 48 | 0 | 0.0 | 0.0 | 0.00 | 0.00 | 0.00 | 87 | 1017.3 |
| 20260506060604 | 48 | 0 | 0.0 | 0.0 | 0.00 | 0.00 | 0.00 | 87 | 1017.3 |
| 20260506051206 | 50 | 112 | 1.7 | 2.6 | 0.00 | 0.00 | 0.00 | 87 | 1017.0 |
| 20260506044805 | 50 | 113 | 0.0 | 0.9 | 0.00 | 0.00 | 0.00 | 83 | 1016.8 |
| 20260506044205 | 51 | 113 | 0.9 | 1.7 | 0.00 | 0.00 | 0.00 | 83 | 1016.7 |
| 20260506043008 | 51 | 113 | 0.0 | 1.7 | 0.00 | 0.00 | 0.00 | 82 | 1016.6 |
| 20260506041804 | 52 | 113 | 0.0 | 0.9 | 0.00 | 0.00 | 0.00 | 82 | 1016.3 |
| 20260506041204 | 52 | 112 | 0.0 | 0.9 | 0.00 | 0.00 | 0.00 | 81 | 1016.1 |
| 20260506040604 | 53 | 113 | 0.0 | 0.9 | 0.00 | 0.00 | 0.00 | 81 | 1016.1 |
| 20260506035404 | 54 | 113 | 0.0 | 0.9 | 0.00 | 0.00 | 0.00 | 79 | 1015.9 |
| 20260506034806 | 54 | 112 | 0.0 | 0.9 | 0.00 | 0.00 | 0.00 | 79 | 1015.9 |
| 20260506034204 | 54 | 112 | 0.0 | 0.9 | 0.00 | 0.00 | 0.00 | 79 | 1015.8 |
| 20260506033606 | 54 | 0 | 0.0 | 0.0 | 0.00 | 0.00 | 0.00 | 77 | 1015.6 |
| 20260506033009 | 55 | 112 | 0.0 | 0.9 | 0.00 | 0.00 | 0.00 | 77 | 1015.5 |
| 20260506031805 | 56 | 113 | 0.9 | 1.7 | 0.00 | 0.00 | 0.00 | 76 | 1015.3 |
| 20260506031204 | 56 | 113 | 0.9 | 2.6 | 0.00 | 0.00 | 0.00 | 75 | 1015.2 |
| 20260506030605 | 57 | 131 | 0.9 | 2.6 | 0.00 | 0.00 | 0.00 | 75 | 1015.1 |
| 20260506030008 | 57 | 264 | 0.0 | 1.7 | 0.00 | 0.00 | 0.00 | 74 | 1015.0 |
| 20260506025404 | 58 | 264 | 0.0 | 0.9 | 0.00 | 0.00 | 0.00 | 74 | 1014.9 |
| 20260506024804 | 58 | 261 | 0.9 | 1.7 | 0.00 | 0.00 | 0.00 | 74 | 1014.9 |
| 20260506024204 | 58 | 260 | 0.9 | 1.7 | 0.00 | 0.00 | 0.00 | 74 | 1014.9 |
| 20260506023604 | 58 | 263 | 1.7 | 5.2 | 0.00 | 0.00 | 0.00 | 74 | 1014.8 |
| 20260506023008 | 58 | 264 | 4.3 | 8.7 | 0.00 | 0.00 | 0.00 | 74 | 1014.8 |
| 20260506022404 | 58 | 260 | 5.2 | 10.4 | 0.00 | 0.00 | 0.00 | 73 | 1014.7 |
| 20260506020008 | 59 | 269 | 6.1 | 10.4 | 0.00 | 0.00 | 0.00 | 72 | 1014.4 |
| 20260506015404 | 60 | 265 | 5.2 | 8.7 | 0.00 | 0.00 | 0.00 | 71 | 1014.4 |
| 20260506014804 | 60 | 260 | 6.1 | 9.6 | 0.00 | 0.00 | 0.00 | 72 | 1014.4 |
| 20260506013605 | 60 | 264 | 6.1 | 10.4 | 0.00 | 0.00 | 0.00 | 71 | 1014.4 |
| 20260506013008 | 60 | 265 | 6.1 | 10.4 | 0.00 | 0.00 | 0.00 | 71 | 1014.3 |
| 20260506012404 | 59 | 254 | 6.1 | 10.4 | 0.00 | 0.00 | 0.00 | 71 | 1014.3 |
| 20260506011804 | 60 | 252 | 6.1 | 10.4 | 0.00 | 0.00 | 0.00 | 71 | 1014.3 |
| 20260506010604 | 60 | 261 | 7.8 | 14.8 | 0.00 | 0.00 | 0.00 | 70 | 1014.4 |
| 20260506010008 | 60 | 257 | 6.1 | 11.3 | 0.00 | 0.00 | 0.00 | 70 | 1014.3 |
| 20260506004805 | 60 | 252 | 7.0 | 11.3 | 0.00 | 0.00 | 0.00 | 69 | 1014.4 |
| 20260506003605 | 61 | 263 | 7.8 | 13.0 | 0.00 | 0.00 | 0.00 | 68 | 1014.3 |
| 20260506003008 | 61 | 258 | 8.7 | 13.0 | 0.00 | 0.00 | 0.00 | 67 | 1014.3 |
| 20260506002404 | 62 | 258 | 9.6 | 13.9 | 0.00 | 0.00 | 0.00 | 67 | 1014.3 |
| 20260506001805 | 62 | 261 | 8.7 | 13.9 | 0.00 | 0.00 | 0.00 | 67 | 1014.3 |
| 20260506000008 | 63 | 263 | 8.7 | 13.0 | 0.00 | 0.00 | 0.00 | 65 | 1014.2 |
| 20260505235404 | 64 | 255 | 8.7 | 13.0 | 0.00 | 0.00 | 0.00 | 65 | 1014.2 |
| 20260505234205 | 64 | 254 | 8.7 | 13.9 | 0.00 | 0.00 | 0.00 | 62 | 1014.3 |
| 20260505233604 | 65 | 257 | 7.8 | 13.0 | 0.00 | 0.00 | 0.00 | 63 | 1014.3 |
| 20260505232404 | 64 | 253 | 8.7 | 13.0 | 0.00 | 0.00 | 0.00 | 63 | 1014.3 |
| 20260505231804 | 64 | 251 | 8.7 | 13.9 | 0.00 | 0.00 | 0.00 | 62 | 1014.3 |
| 20260505231204 | 64 | 253 | 8.7 | 13.9 | 0.00 | 0.00 | 0.00 | 62 | 1014.3 |
| 20260505230605 | 65 | 256 | 7.8 | 13.0 | 0.00 | 0.00 | 0.00 | 61 | 1014.3 |
| 20260505230008 | 65 | 263 | 7.8 | 13.0 | 0.00 | 0.00 | 0.00 | 61 | 1014.3 |
| 20260505225404 | 65 | 272 | 7.0 | 10.4 | 0.00 | 0.00 | 0.00 | 60 | 1014.3 |
| 20260505224804 | 66 | 253 | 7.0 | 11.3 | 0.00 | 0.00 | 0.00 | 60 | 1014.4 |
| 20260505224204 | 66 | 241 | 6.1 | 11.3 | 0.00 | 0.00 | 0.00 | 60 | 1014.5 |
| 20260505223605 | 65 | 249 | 6.1 | 13.0 | 0.00 | 0.00 | 0.00 | 61 | 1014.5 |
| 20260505223009 | 65 | 263 | 7.0 | 13.0 | 0.00 | 0.00 | 0.00 | 60 | 1014.5 |
| 20260505222404 | 65 | 258 | 7.0 | 11.3 | 0.00 | 0.00 | 0.00 | 59 | 1014.6 |
| 20260505221804 | 64 | 262 | 6.1 | 11.3 | 0.00 | 0.00 | 0.00 | 60 | 1014.7 |
| 20260505220604 | 64 | 278 | 6.1 | 9.6 | 0.00 | 0.00 | 0.00 | 59 | 1014.8 |
| 20260505220008 | 64 | 283 | 5.2 | 9.6 | 0.00 | 0.00 | 0.00 | 59 | 1014.9 |
| 20260505215404 | 64 | 277 | 6.1 | 9.6 | 0.00 | 0.00 | 0.00 | 60 | 1014.9 |
| 20260505214804 | 64 | 269 | 7.0 | 10.4 | 0.00 | 0.00 | 0.00 | 60 | 1014.9 |
| 20260505214204 | 64 | 268 | 7.0 | 10.4 | 0.00 | 0.00 | 0.00 | 60 | 1015.0 |
| 20260505213604 | 64 | 264 | 5.2 | 10.4 | 0.00 | 0.00 | 0.00 | 59 | 1015.1 |
| 20260505213007 | 64 | 267 | 5.2 | 9.6 | 0.00 | 0.00 | 0.00 | 59 | 1015.1 |
| 20260505211804 | 64 | 258 | 6.1 | 10.4 | 0.00 | 0.00 | 0.00 | 60 | 1015.2 |
| 20260505211204 | 64 | 262 | 7.0 | 11.3 | 0.00 | 0.00 | 0.00 | 60 | 1015.3 |
| 20260505210604 | 64 | 262 | 7.8 | 12.2 | 0.00 | 0.00 | 0.00 | 60 | 1015.3 |
| 20260505210009 | 63 | 274 | 7.8 | 12.2 | 0.00 | 0.00 | 0.00 | 61 | 1015.3 |
| 20260505205404 | 64 | 270 | 7.0 | 11.3 | 0.00 | 0.00 | 0.00 | 61 | 1015.2 |
| 20260505204804 | 64 | 270 | 7.8 | 10.4 | 0.00 | 0.00 | 0.00 | 61 | 1015.2 |
| 20260505204206 | 64 | 270 | 6.1 | 10.4 | 0.00 | 0.00 | 0.00 | 60 | 1015.2 |
| 20260505203604 | 64 | 255 | 5.2 | 9.6 | 0.00 | 0.00 | 0.00 | 62 | 1015.2 |
| 20260505203009 | 64 | 255 | 6.1 | 10.4 | 0.00 | 0.00 | 0.00 | 64 | 1015.2 |
| 20260505202404 | 64 | 272 | 6.1 | 12.2 | 0.00 | 0.00 | 0.00 | 63 | 1015.2 |
| 20260505201804 | 64 | 271 | 6.1 | 10.4 | 0.00 | 0.00 | 0.00 | 64 | 1015.3 |
| 20260505201204 | 63 | 253 | 7.0 | 11.3 | 0.00 | 0.00 | 0.00 | 64 | 1015.2 |
| 20260505200604 | 62 | 247 | 4.3 | 11.3 | 0.00 | 0.00 | 0.00 | 64 | 1015.3 |
| 20260505200008 | 62 | 258 | 5.2 | 9.6 | 0.00 | 0.00 | 0.00 | 62 | 1015.2 |
| 20260505194804 | 62 | 256 | 6.1 | 9.6 | 0.00 | 0.00 | 0.00 | 63 | 1015.3 |
| 20260505194204 | 61 | 262 | 5.2 | 9.6 | 0.00 | 0.00 | 0.00 | 63 | 1015.3 |
| 20260505193604 | 61 | 281 | 6.1 | 11.3 | 0.00 | 0.00 | 0.00 | 63 | 1015.4 |
| 20260505193009 | 62 | 269 | 4.3 | 9.6 | 0.00 | 0.00 | 0.00 | 62 | 1015.3 |
| 20260505192404 | 63 | 277 | 2.6 | 7.8 | 0.00 | 0.00 | 0.00 | 60 | 1015.3 |
| 20260505191805 | 63 | 12 | 1.7 | 4.3 | 0.00 | 0.00 | 0.00 | 58 | 1015.2 |
| 20260505190604 | 64 | 76 | 2.6 | 7.0 | 0.00 | 0.00 | 0.00 | 59 | 1015.2 |
| 20260505190008 | 64 | 31 | 2.6 | 7.0 | 0.00 | 0.00 | 0.00 | 57 | 1015.3 |
| 20260505185404 | 64 | 29 | 1.7 | 7.8 | 0.00 | 0.00 | 0.00 | 58 | 1015.2 |
| 20260505184804 | 64 | 34 | 1.7 | 3.5 | 0.00 | 0.00 | 0.00 | 60 | 1015.2 |
| 20260505184204 | 63 | 166 | 1.7 | 4.3 | 0.00 | 0.00 | 0.00 | 60 | 1015.3 |
| 20260505183604 | 63 | 324 | 1.7 | 4.3 | 0.00 | 0.00 | 0.00 | 59 | 1015.1 |
| 20260505182405 | 63 | 337 | 2.6 | 6.1 | 0.00 | 0.00 | 0.00 | 60 | 1015.1 |
| 20260505181804 | 63 | 294 | 3.5 | 8.7 | 0.00 | 0.00 | 0.00 | 59 | 1015.2 |
| 20260505181204 | 63 | 315 | 2.6 | 8.7 | 0.00 | 0.00 | 0.00 | 60 | 1015.2 |
| 20260505180604 | 63 | 351 | 3.5 | 7.8 | 0.00 | 0.00 | 0.00 | 61 | 1015.2 |
| 20260505180008 | 62 | 34 | 2.6 | 7.0 | 0.00 | 0.00 | 0.00 | 62 | 1015.1 |
| 20260505175404 | 62 | 37 | 1.7 | 7.0 | 0.00 | 0.00 | 0.00 | 62 | 1015.2 |
| 20260505174804 | 61 | 4 | 2.6 | 6.1 | 0.00 | 0.00 | 0.00 | 64 | 1015.1 |
| 20260505173604 | 60 | 9 | 2.6 | 6.1 | 0.00 | 0.00 | 0.00 | 63 | 1015.3 |
| 20260505172403 | 60 | 28 | 2.6 | 7.0 | 0.00 | 0.00 | 0.00 | 65 | 1015.4 |
| 20260505170604 | 58 | 14 | 2.6 | 6.1 | 0.00 | 0.00 | 0.00 | 68 | 1015.4 |
| 20260505170008 | 58 | 351 | 2.6 | 6.1 | 0.00 | 0.00 | 0.00 | 69 | 1015.4 |
| 20260505165404 | 58 | 327 | 1.7 | 3.5 | 0.00 | 0.00 | 0.00 | 69 | 1015.3 |
| 20260505164805 | 57 | 9 | 0.9 | 3.5 | 0.00 | 0.00 | 0.00 | 72 | 1015.3 |
| 20260505164204 | 56 | 331 | 0.9 | 4.3 | 0.00 | 0.00 | 0.00 | 73 | 1015.4 |
| 20260505163604 | 56 | 2 | 1.7 | 7.0 | 0.00 | 0.00 | 0.00 | 72 | 1015.5 |
| 20260505163009 | 56 | 346 | 2.6 | 7.0 | 0.00 | 0.00 | 0.00 | 74 | 1015.5 |
| 20260505162404 | 55 | 311 | 2.6 | 6.1 | 0.00 | 0.00 | 0.00 | 75 | 1015.4 |
| 20260505161804 | 55 | 339 | 2.6 | 5.2 | 0.00 | 0.00 | 0.00 | 75 | 1015.4 |
| 20260505161203 | 55 | 333 | 2.6 | 6.1 | 0.00 | 0.00 | 0.00 | 75 | 1015.5 |
| 20260505160605 | 55 | 333 | 1.7 | 6.1 | 0.00 | 0.00 | 0.00 | 77 | 1015.4 |
| 20260505153008 | 52 | 122 | 1.7 | 3.5 | 0.00 | 0.00 | 0.00 | 83 | 1015.1 |
| 20260505152403 | 52 | 114 | 1.7 | 3.5 | 0.00 | 0.00 | 0.00 | 84 | 1015.1 |
| 20260505151805 | 52 | 104 | 2.6 | 5.2 | 0.00 | 0.00 | 0.00 | 83 | 1015.0 |
| 20260505151204 | 52 | 106 | 2.6 | 5.2 | 0.00 | 0.00 | 0.00 | 82 | 1015.0 |
| 20260505140604 | 47 | 108 | 0.9 | 3.5 | 0.00 | 0.00 | 0.00 | 90 | 1014.8 |